ONEWEB-0702, 61608

Orbit data source: Space-Track

ONEWEB-0702, 61608 is a payload satellite owned by Eut. One Web (UK) in LEO that was launched on Sun, 20 Oct 2024 UTC via an FALCON 9 launch vehicle from the Air Force Western Test Range (AFWTR). Payload-class satellites include a variety of spacecraft equipped with specific instruments for various scientific and technological missions. These include communications satellites like Starlink; space stations such as the ISS; scientific satellites like the Hubble; Earth observation satellites from companies like Planet Labs, Umbra, and HawkEye 360; GPS; miniature CubeSats for education and research; and military/defense satellites.

Loading next visibility...
Identifier
61608, 2024-188Q
Orbit
LEO
Last TLE update
1 day ago
Origin
Manufacturer
One Web
Mission
Operational Commercial Communications
Bus & Motor
ARROW, Unknown motor
Mass
148 kg wet, ~140 kg dry
Launch date (UTC)
2024-10-20 (8 months ago)
Launch vehicle
FALCON 9
Launch site
Air Force Western Test Range (AFWTR)
Object type
Payload
Rocket body
Debris
Shape & HBR
Trap Box + 2 Pan, 5 m
Radar Cross Section
2.032 m², Large (>1 m²)

Expand to show TLE details & history

TLE from 1 day ago
0 ONEWEB-0702
1 61608U 24188Q   25172.21211117  .00000071  00000-0  16356-3 0  9999
2 61608  87.8768  93.0341 0002896  72.6228 287.5217 13.11418473 35259
Epoch: 2025-06-21T05:05Z
TLE epoch observation values (Epoch: 2025-06-21T05:05:26.405Z)
Latitude
0.00005°
Longitude
107.01975°
Altitude
1,219.904 km
Speed
7.245 km/s
True Right ascension
06h 12m 08s
True Declination
0° 00' 00"
Sunlit
Object was in daylight at epoch
Visualization orbit readout
Latitude
-14.74915°
Longitude
-72.70674°
Altitude
1,224.936 km
Speed
7.241 km/s
Apparent Right ascension
16h 37m 00s
Apparent Declination
-29° 31' 08"
Sunlit
Object is in full shadow
Visualization observer readout
Local Sidereal Time
02:06:05
Azimuth
276.825° WNW
Elevation
-57.569°
Doppler factor
1
Orbital elements
Apogee altitude
1,216.994 km
Perigee altitude
1,212.596 km
Semi-major axis
7,592.932 km
Eccentricity
0.00029
Inclination
87.8768°
RAAN
93.0341°
Arg. of periapsis
72.6228°
True anomaly
Unknown
Mean anomaly
287.5217°
Eccentric anomaly
Unknown
Mean motion
3.28042 °/min
Orbital period
109.74 mins
BSTAR
0.00016356
Loading maneuver chart data...
Loading SW <> Apogee altitude chart data...
Loading historical data...
Loading historical data...
Loading historical data...
Loading historical data...
Loading historical data...
Loading historical data...
Loading historical data...

ONEWEB-0702 Visibility forecast

Observer location: undefined°, undefined°

Span
Click to sort rows by Start time (UTC) header in descending order
Start Az.
Max El. time (UTC)
Max El. Az.
Max El.
End time (UTC)
End Az.
10 mins2025-06-22 17:50:22.620Z125.56° SE2025-06-22 17:55:22.620Z78.099° E23.673°2025-06-22 18:00:22.620Z29.163° NE
12 mins2025-06-22 19:39:22.620Z201.637° SSW2025-06-22 19:44:22.620Z259.485° W39.302°2025-06-22 19:51:22.620Z350.573° N
8 mins2025-06-23 05:20:22.620Z40.174° NE2025-06-23 05:24:22.620Z79.312° E19.316°2025-06-23 05:28:22.620Z115.65° SE
13 mins2025-06-23 07:08:22.620Z353.181° N2025-06-23 07:14:22.620Z280.562° WNW43.136°2025-06-23 07:21:22.620Z192.378° SSW
|